Temperature
22 21 20 19 19 19 20 20 20 19 16 15 15 15 16 14 12 12 12 12 11 11 10 9 8 7 5 4 3 2 2 2 2 2 2 1 1 -0 -1 -2 -3 -4 -5 -6
21 20 19 19 19 19 19 20 20 18 15 15 15 15 17 16 12 12 13 13 13 12 11 10 8 7 5 4 3 2 1 2 2 2 1 1 0 -1 -2 -3 -4 -5 -6 -7
21 18 18 18 19 19 20 20 18 17 18 16 15 16 16 16 16 14 13 13 13 13 12 11 9 7 5 4 3 2 1 2 2 1 1 0 -0 -1 -2 -3 -4 -5 -6 -7
20 18 18 18 19 19 19 17 17 17 16 17 17 16 16 15 14 14 14 13 13 13 13 12 10 8 6 4 3 2 1 2 2 1 1 -0 -1 -1 -2 -3 -4 -5 -6 -7
19 18 17 18 19 17 18 16 16 16 16 16 17 16 18 17 15 14 14 14 14 13 12 11 10 8 6 4 3 2 2 2 1 1 0 -0 -1 -2 -3 -4 -5 -6 -6 -7
18 17 18 17 17 16 16 16 16 15 15 16 18 18 18 17 19 17 16 16 15 14 13 11 10 8 6 4 3 2 2 1 1 1 0 -0 -1 -2 -3 -4 -5 -6 -7 -8
17 17 16 16 16 16 15 16 16 16 15 18 18 17 17 19 19 19 17 16 15 14 12 11 9 7 6 4 3 2 2 1 1 0 -0 -1 -1 -2 -3 -4 -5 -6 -7 -8
20 18 16 16 17 16 18 17 17 17 18 18 17 16 18 18 19 18 17 16 15 13 12 10 9 7 5 4 3 2 2 1 1 0 -0 -1 -2 -3 -3 -4 -5 -6 -7 -8
19 18 15 16 16 15 17 17 17 16 18 17 17 19 20 17 16 16 15 14 14 13 12 10 8 7 5 4 3 2 1 1 1 0 -0 -1 -2 -3 -3 -4 -5 -6 -7 -8
17 18 16 14 14 14 14 15 15 15 16 15 17 19 18 16 16 15 14 15 15 14 12 10 8 6 4 3 2 1 1 1 1 0 -0 -1 -2 -3 -4 -4 -5 -6 -7 -8
17 17 16 14 14 15 14 15 15 16 16 15 15 17 20 18 18 18 16 17 16 14 13 11 8 6 4 2 1 1 1 1 1 0 -1 -1 -2 -3 -4 -5 -6 -6 -7 -8
16 16 16 16 15 14 16 16 16 15 15 15 13 15 19 19 19 18 18 17 16 14 13 11 8 5 3 2 1 1 1 1 0 -0 -1 -1 -2 -3 -4 -5 -6 -6 -7 -7
15 14 16 16 14 13 14 15 16 16 14 14 14 15 19 19 18 18 17 17 15 14 12 10 7 5 3 2 1 1 1 1 0 -0 -1 -2 -2 -3 -4 -5 -5 -6 -7 -7
13 13 15 16 16 15 14 14 14 14 13 13 14 15 18 17 16 17 18 17 15 13 12 9 7 5 3 2 1 1 1 1 0 -0 -1 -2 -2 -3 -4 -5 -5 -6 -6 -7
12 12 14 15 16 16 15 15 13 13 14 14 15 16 17 18 18 19 18 17 15 13 12 10 7 5 3 2 1 1 1 1 0 -0 -1 -2 -2 -3 -4 -4 -5 -5 -6 -7
11 12 14 14 15 15 14 14 14 13 13 14 15 15 17 18 19 18 17 16 15 14 12 10 8 6 4 3 2 1 1 1 1 -0 -1 -2 -2 -3 -4 -4 -5 -5 -6 -6
11 11 12 12 15 13 12 13 13 13 13 13 13 14 16 17 16 17 17 16 15 14 13 11 9 7 5 4 3 2 2 1 1 -0 -1 -2 -2 -3 -4 -4 -4 -5 -5 -6
11 12 11 11 14 12 15 16 16 14 14 13 13 14 14 16 17 17 17 16 16 15 14 12 11 8 6 4 3 2 2 1 1 -0 -1 -2 -2 -3 -3 -4 -4 -5 -5 -6
10 11 12 11 10 12 15 16 14 14 13 14 14 14 15 16 14 16 18 17 17 15 14 13 11 9 6 4 3 2 2 1 1 -0 -1 -2 -2 -3 -3 -4 -4 -4 -5 -6
8 9 9 9 9 10 15 14 14 14 12 15 14 13 15 14 11 14 18 17 16 15 13 12 11 9 6 5 4 3 2 1 1 0 -1 -2 -2 -3 -3 -3 -4 -4 -5 -5
6 7 7 8 8 11 14 12 12 13 14 18 18 17 16 12 14 17 17 16 15 14 13 11 10 9 7 6 4 3 2 2 1 0 -1 -2 -2 -3 -3 -3 -4 -4 -5 -5
8 7 7 8 8 10 12 11 12 14 17 18 19 19 18 18 18 17 16 16 15 14 12 11 9 8 7 6 4 3 3 2 1 -0 -1 -1 -2 -3 -3 -3 -4 -4 -5 -5
11 11 11 11 12 15 14 14 16 16 16 17 17 17 17 16 17 17 16 16 15 14 12 10 9 7 6 5 5 4 3 2 1 -0 -1 -2 -2 -3 -3 -3 -4 -4 -4 -5
13 13 12 12 12 14 15 15 16 17 17 17 17 17 16 16 17 17 16 16 15 14 12 10 8 7 6 5 5 4 3 2 1 0 -1 -2 -2 -3 -3 -3 -4 -4 -4 -5
14 11 10 10 12 14 16 17 17 18 18 17 17 17 17 16 16 16 16 15 15 14 12 10 9 8 7 6 5 4 2 2 1 0 -1 -2 -2 -3 -3 -3 -4 -4 -4 -5
13 12 11 12 14 13 15 17 17 17 17 17 16 16 16 15 15 15 15 14 14 13 12 10 9 8 6 5 5 4 3 2 1 0 -1 -1 -2 -2 -3 -3 -4 -4 -4 -5
Wind_Speed
3 3 2 6 5 6 6 6 7 4 7 6 10 11 9 14 12 12 11 12 13 13 13 13 12 12 11 10 9 8 5 3 1 0 2 3 3 4 6 7 7 9 11 12
5 3 5 3 2 5 6 7 5 5 7 5 8 11 8 10 16 13 12 12 13 13 12 13 13 13 12 11 10 9 7 4 2 1 1 3 4 4 7 7 7 9 11 13
3 5 3 2 5 6 8 2 4 5 4 8 6 5 5 1 6 11 12 12 11 12 13 13 14 13 12 11 11 9 7 4 3 2 2 3 3 4 3 3 4 9 12 13
4 4 2 5 5 2 3 6 3 5 6 2 5 4 7 6 7 9 12 12 12 11 10 12 14 14 13 11 10 9 7 5 4 3 2 3 4 4 4 4 4 9 12 13
3 5 4 5 1 1 3 2 4 6 5 5 6 5 5 7 8 11 13 13 13 11 11 11 13 14 13 11 11 9 8 7 5 4 3 4 5 4 4 5 6 6 9 12
3 1 2 3 3 1 5 5 6 4 3 5 6 3 4 7 7 8 10 10 10 10 10 9 11 12 11 11 10 9 8 7 6 5 5 5 5 5 6 7 6 5 4 8
7 5 4 0 3 5 5 4 3 4 4 4 4 4 7 8 8 7 8 10 10 9 9 10 12 13 13 13 11 9 9 8 8 6 5 5 5 5 6 6 6 6 5 5
6 6 8 6 2 3 3 3 4 3 3 1 4 6 7 9 9 7 5 5 7 9 9 11 12 13 13 13 12 10 10 8 7 6 5 4 5 4 4 5 6 6 6 5
5 3 3 3 2 3 4 3 2 3 5 4 6 7 5 7 7 8 9 9 10 10 10 11 11 12 13 13 12 11 10 8 7 6 6 6 4 4 5 6 5 5 5 9
5 4 6 5 2 4 4 6 2 3 3 5 7 7 6 9 10 12 11 12 12 11 11 12 12 12 12 12 11 10 9 8 7 6 6 5 5 6 5 5 7 7 7 9
3 4 4 5 8 8 6 4 5 4 3 3 5 7 4 11 10 9 10 10 10 12 12 12 12 12 11 11 11 10 9 8 7 7 6 5 5 5 5 6 7 6 6 8
2 3 5 4 3 3 4 7 7 5 5 5 4 9 7 7 7 7 7 6 7 9 11 12 12 12 11 11 11 10 10 9 8 7 5 5 5 6 6 7 6 6 6 8
1 3 4 2 1 1 4 6 6 4 2 5 5 9 3 4 5 8 10 9 8 9 11 11 12 12 12 12 11 11 10 9 8 7 6 6 6 6 6 6 6 6 7 7
2 4 7 6 2 2 6 8 9 7 6 7 11 15 10 8 9 9 9 10 10 11 11 12 12 13 13 12 12 11 10 9 9 8 7 6 6 5 5 6 7 7 7 8
3 5 7 11 10 7 9 11 12 14 13 11 12 15 17 10 7 6 3 6 8 9 11 13 14 13 13 13 12 11 10 10 9 8 7 7 5 4 5 7 8 8 8 10
4 5 4 7 10 9 10 14 15 18 17 20 19 21 19 11 9 7 6 6 9 11 13 14 14 15 15 15 13 12 11 10 9 8 7 6 5 5 6 7 8 9 9 9
6 5 4 6 2 3 10 15 18 11 13 12 19 17 10 8 8 8 8 9 11 12 12 14 17 16 15 15 14 13 11 9 9 9 8 7 6 6 7 8 8 9 9 9
7 4 3 5 4 11 11 4 8 13 16 15 15 14 10 9 6 6 8 11 12 11 11 14 15 15 13 13 13 12 11 11 10 9 8 8 7 7 7 7 9 9 9 9
2 5 5 4 5 10 12 9 6 9 10 13 19 20 16 9 7 9 12 13 13 11 10 12 13 13 13 14 14 13 12 11 11 10 9 9 8 7 7 8 9 9 8 8
3 3 4 5 6 9 10 2 3 2 9 12 13 15 13 4 3 8 5 6 9 8 8 10 12 13 14 15 15 15 14 13 13 12 10 9 8 8 8 9 9 7 7 8
5 5 7 9 10 11 10 6 7 5 9 5 10 12 10 10 11 8 6 6 8 8 9 10 12 14 15 16 17 16 15 16 13 11 10 9 8 8 8 8 7 7 7 7
13 11 10 8 9 13 8 10 11 12 5 5 7 9 10 11 12 10 9 9 9 9 10 11 12 13 13 16 18 17 17 14 12 11 10 9 8 7 7 7 7 7 6 6
13 14 10 14 14 7 11 12 9 5 6 7 7 8 8 10 12 12 11 11 11 12 11 12 12 12 13 17 18 19 16 14 13 12 10 8 8 7 7 7 7 5 4 4
8 7 7 8 11 10 9 10 12 13 15 15 13 12 11 13 14 14 13 11 11 12 13 13 13 15 17 18 18 16 14 15 15 13 11 9 8 7 6 6 5 4 4 4
10 5 5 9 8 9 12 13 16 17 16 16 15 15 15 15 16 15 14 12 11 12 12 13 16 19 19 18 18 15 16 17 15 13 11 10 8 7 6 5 5 5 5 5
13 10 11 15 10 9 11 9 10 12 15 16 15 16 13 13 16 15 14 12 10 12 12 15 18 19 18 18 18 17 17 18 17 14 12 9 8 7 6 5 4 7 7 8
Wind_Direction
219 244 69 43 21 340 341 317 304 96 148 209 248 261 248 182 193 211 215 211 215 214 202 189 180 164 155 151 155 163 169 168 156 164 329 312 312 304 300 297 306 321 322 319
238 141 70 41 347 298 279 285 323 96 161 213 276 276 261 183 195 205 216 221 216 212 199 186 175 167 165 166 166 166 168 161 167 152 255 256 268 269 280 285 314 319 313 309
9 83 91 260 241 274 268 296 5 337 287 217 264 268 169 129 187 195 212 227 231 213 201 186 177 172 170 172 167 167 148 167 189 177 252 283 289 291 303 327 319 308 306 306
96 121 216 259 253 305 328 58 354 300 296 239 191 279 196 179 204 213 218 223 229 229 207 186 177 175 174 166 146 144 151 183 191 193 238 281 289 291 296 295 284 297 306 309
155 156 212 255 19 19 347 51 285 280 270 277 200 249 191 180 206 213 213 216 219 217 206 189 175 172 166 149 143 148 159 190 190 196 233 255 271 281 290 293 292 298 305 306
90 73 286 354 57 251 310 273 237 263 263 252 170 219 231 194 186 180 185 193 198 196 189 176 158 152 145 140 142 152 173 194 189 204 229 243 266 284 295 298 300 300 294 298
188 191 159 149 246 201 227 270 241 223 221 211 140 214 248 172 157 175 186 188 185 179 173 166 156 155 151 150 155 164 184 199 193 203 225 242 259 270 277 287 293 296 295 295
228 192 166 186 256 320 257 276 307 284 285 345 191 228 244 155 152 157 171 181 178 180 179 174 168 163 160 161 165 173 190 198 190 200 224 238 253 258 263 275 282 286 287 284
317 97 89 87 32 304 277 228 24 308 292 274 253 231 194 143 169 193 207 210 211 201 186 175 167 166 166 168 172 179 187 191 190 199 218 235 250 267 269 275 278 275 276 293
310 296 158 141 206 230 266 319 265 239 259 272 279 257 223 190 218 214 214 218 217 200 184 175 174 173 170 169 171 176 182 189 187 195 218 230 236 252 260 272 276 278 284 294
286 283 167 171 206 201 186 222 232 261 271 236 275 266 223 176 183 189 203 210 205 193 184 179 177 172 165 162 165 174 183 186 188 199 211 231 247 259 265 269 272 278 286 293
228 294 264 195 106 16 214 218 196 210 231 213 251 270 251 184 166 178 208 207 188 179 175 173 170 167 166 167 172 181 186 187 191 193 200 229 247 258 263 269 278 287 289 292
166 243 274 220 324 342 279 251 240 259 305 229 225 259 238 185 195 211 218 218 200 173 166 169 171 175 176 176 180 185 186 185 183 182 199 229 247 256 266 280 289 292 290 291
14 249 236 258 347 187 231 229 213 207 215 233 231 251 258 236 239 239 221 208 197 180 175 178 182 183 181 182 184 185 184 179 178 182 200 225 243 258 278 293 294 290 287 291
204 252 257 269 281 246 237 237 208 214 223 230 245 249 257 249 259 277 240 185 184 181 186 189 190 187 184 184 185 184 181 176 177 183 202 221 240 274 288 287 285 284 283 289
216 250 273 272 255 247 258 248 232 227 234 244 259 269 268 276 276 268 251 219 213 210 201 197 193 190 189 187 185 182 179 174 171 184 200 210 228 252 265 273 277 280 282 283
195 218 244 262 212 341 266 238 223 218 216 212 237 248 273 265 249 245 249 240 231 223 207 198 198 197 192 187 182 181 177 167 171 185 196 205 220 245 260 274 281 283 286 285
194 205 237 266 275 249 244 249 220 220 237 223 239 260 274 273 297 282 257 246 244 229 209 199 195 193 184 176 174 171 168 169 176 186 197 204 214 237 255 267 274 278 279 279
259 210 234 231 249 269 277 252 206 215 263 230 233 251 260 271 321 286 254 231 229 224 205 194 187 181 175 173 170 168 171 173 180 192 199 201 207 228 247 259 266 271 277 284
296 288 234 204 222 248 256 179 93 129 276 248 211 231 246 173 273 269 242 206 214 207 185 175 169 169 174 173 168 172 179 182 192 196 196 195 201 217 237 252 262 272 283 286
178 207 214 219 229 254 261 145 123 188 251 230 193 213 212 194 222 237 201 207 207 200 183 169 169 178 180 171 171 181 185 194 193 184 186 191 200 217 236 251 265 278 284 292
180 184 200 195 214 248 213 153 190 222 277 257 227 219 217 226 247 250 229 221 208 201 188 177 180 183 176 173 178 186 194 190 175 175 181 190 203 221 237 246 261 269 285 301
196 196 195 201 219 246 177 204 230 278 280 270 266 262 248 252 260 262 252 233 216 205 197 188 185 184 182 182 185 192 190 173 170 173 182 192 204 216 225 236 252 266 282 289
226 211 228 242 248 258 243 241 256 260 259 262 260 260 256 255 261 265 262 246 224 209 200 192 188 193 194 191 192 193 178 170 171 178 184 192 201 211 221 231 234 239 254 277
258 199 238 259 267 283 267 246 248 256 260 262 261 255 250 252 260 260 262 252 231 214 200 194 200 203 200 192 193 188 176 171 175 180 185 191 196 199 215 229 228 233 222 232
243 234 238 257 251 249 262 256 253 257 264 265 266 270 262 246 255 261 260 252 231 214 201 202 207 208 201 192 192 188 179 175 176 183 187 190 191 196 203 216 248 270 255 257
Height
1554 1555 1558 1559 1559 1559 1557 1558 1557 1558 1563 1566 1565 1561 1556 1557 1560 1562 1563 1563 1564 1564 1566 1567 1568 1567 1566 1566 1566 1566 1566 1565 1563 1561 1559 1557 1555 1552 1549 1546 1543 1539 1535 1530
1555 1557 1558 1558 1559 1559 1558 1559 1556 1559 1563 1563 1561 1557 1550 1549 1553 1555 1557 1558 1558 1559 1561 1561 1562 1561 1560 1560 1561 1561 1561 1561 1559 1558 1556 1553 1551 1548 1546 1543 1540 1536 1531 1527
1552 1561 1559 1559 1559 1559 1556 1557 1560 1562 1558 1557 1562 1553 1550 1549 1549 1551 1551 1552 1553 1553 1554 1555 1555 1555 1555 1556 1556 1556 1556 1557 1556 1554 1552 1549 1547 1545 1543 1540 1536 1532 1528 1524
1555 1559 1560 1560 1558 1559 1558 1560 1561 1562 1565 1558 1558 1564 1551 1548 1549 1547 1547 1547 1546 1548 1549 1550 1549 1549 1549 1551 1551 1551 1552 1553 1552 1550 1548 1546 1544 1541 1539 1535 1532 1528 1524 1520
1556 1558 1560 1560 1558 1560 1559 1560 1561 1561 1561 1560 1554 1560 1547 1542 1545 1542 1540 1540 1541 1542 1543 1544 1544 1544 1545 1545 1545 1547 1548 1549 1548 1546 1544 1542 1540 1538 1535 1531 1528 1524 1520 1516
1557 1558 1558 1558 1559 1560 1560 1560 1560 1561 1562 1563 1547 1553 1545 1539 1533 1532 1534 1535 1536 1537 1538 1539 1540 1540 1540 1539 1540 1542 1544 1544 1543 1542 1540 1538 1536 1534 1531 1527 1524 1520 1516 1512
1559 1557 1557 1558 1559 1559 1561 1564 1565 1566 1570 1554 1544 1549 1542 1526 1524 1526 1529 1530 1531 1532 1533 1534 1534 1534 1533 1533 1535 1537 1539 1539 1539 1538 1536 1535 1533 1530 1527 1523 1519 1515 1511 1508
1552 1556 1556 1556 1557 1558 1554 1559 1567 1568 1559 1550 1548 1549 1530 1518 1520 1522 1525 1526 1527 1527 1527 1528 1528 1528 1527 1528 1530 1532 1534 1535 1534 1533 1532 1531 1529 1526 1523 1520 1516 1512 1508 1504
1550 1555 1556 1556 1557 1559 1555 1554 1555 1561 1552 1558 1547 1530 1519 1518 1519 1520 1521 1522 1522 1522 1522 1522 1522 1522 1522 1523 1525 1527 1529 1530 1529 1529 1528 1526 1525 1522 1519 1516 1512 1508 1504 1500
1553 1554 1555 1557 1558 1558 1559 1557 1559 1561 1565 1566 1545 1531 1526 1522 1518 1516 1516 1516 1515 1516 1516 1516 1516 1517 1517 1518 1520 1523 1524 1525 1525 1524 1524 1522 1521 1518 1515 1512 1508 1504 1500 1496
1553 1556 1556 1557 1557 1555 1559 1558 1556 1555 1554 1565 1560 1539 1505 1507 1506 1508 1509 1509 1510 1510 1510 1510 1511 1511 1513 1513 1515 1517 1519 1520 1520 1520 1519 1518 1516 1514 1511 1507 1504 1500 1496 1492
1553 1555 1554 1548 1546 1548 1546 1546 1550 1559 1554 1553 1558 1539 1500 1499 1500 1502 1504 1505 1505 1505 1505 1505 1506 1506 1507 1508 1509 1512 1514 1515 1515 1515 1514 1513 1512 1510 1507 1503 1500 1496 1492 1488
1553 1557 1557 1552 1553 1553 1550 1545 1543 1544 1549 1551 1552 1531 1498 1497 1498 1499 1499 1500 1500 1500 1500 1500 1500 1500 1501 1502 1504 1506 1508 1509 1510 1510 1510 1509 1507 1505 1502 1499 1496 1492 1488 1484
1554 1556 1556 1550 1547 1545 1548 1544 1542 1546 1551 1547 1535 1518 1501 1498 1497 1495 1494 1494 1494 1494 1494 1493 1493 1494 1494 1496 1498 1500 1502 1504 1504 1505 1505 1504 1502 1500 1498 1495 1492 1488 1484 1480
1554 1555 1546 1541 1537 1537 1538 1536 1539 1540 1534 1531 1516 1507 1493 1490 1490 1490 1490 1490 1490 1489 1488 1487 1487 1487 1488 1489 1492 1494 1496 1498 1499 1499 1499 1499 1498 1496 1494 1491 1488 1484 1480 1476
1552 1553 1546 1541 1534 1532 1534 1529 1528 1528 1524 1517 1510 1500 1483 1486 1486 1485 1485 1485 1485 1483 1482 1481 1480 1480 1480 1482 1484 1487 1490 1491 1493 1494 1494 1494 1493 1491 1489 1487 1484 1480 1476 1472
1549 1550 1548 1546 1531 1534 1534 1516 1514 1513 1505 1506 1506 1491 1482 1483 1481 1481 1481 1480 1479 1477 1476 1474 1473 1472 1473 1475 1477 1480 1483 1485 1487 1488 1489 1489 1488 1487 1485 1482 1479 1476 1472 1468
1543 1544 1545 1543 1535 1542 1509 1496 1495 1498 1493 1492 1488 1482 1480 1479 1479 1478 1476 1474 1472 1471 1469 1467 1466 1465 1467 1469 1471 1475 1477 1479 1481 1482 1483 1483 1483 1482 1480 1478 1475 1472 1468 1464
1538 1540 1540 1542 1543 1526 1504 1492 1492 1493 1490 1480 1480 1477 1475 1476 1476 1472 1470 1468 1466 1465 1463 1461 1460 1459 1460 1462 1464 1468 1470 1472 1474 1476 1477 1478 1478 1477 1476 1474 1471 1468 1464 1461
1539 1539 1542 1541 1543 1531 1500 1490 1488 1492 1492 1470 1470 1471 1470 1473 1478 1469 1464 1462 1460 1458 1456 1454 1453 1452 1453 1454 1457 1460 1462 1465 1467 1469 1471 1472 1472 1472 1471 1469 1467 1464 1461 1458
1541 1540 1541 1538 1534 1513 1488 1488 1490 1498 1484 1465 1463 1464 1465 1466 1465 1460 1458 1456 1454 1452 1450 1447 1446 1445 1445 1447 1450 1452 1455 1457 1461 1464 1465 1466 1467 1467 1466 1465 1463 1461 1458 1454
1521 1529 1529 1526 1527 1510 1479 1484 1484 1474 1465 1463 1461 1460 1460 1459 1457 1455 1453 1450 1447 1445 1442 1440 1438 1437 1438 1440 1442 1444 1447 1451 1455 1457 1459 1460 1461 1461 1461 1461 1459 1457 1454 1451
1498 1496 1497 1497 1488 1474 1471 1469 1465 1465 1462 1459 1458 1457 1456 1454 1451 1449 1447 1443 1440 1437 1435 1433 1431 1431 1431 1431 1433 1436 1439 1444 1446 1449 1452 1454 1455 1456 1456 1456 1455 1453 1451 1448
1483 1482 1483 1480 1471 1469 1467 1465 1463 1462 1458 1455 1453 1451 1450 1447 1444 1442 1439 1436 1433 1430 1427 1425 1423 1422 1421 1422 1425 1429 1433 1436 1439 1442 1445 1447 1449 1450 1451 1451 1450 1449 1447 1445
1476 1479 1479 1474 1466 1465 1460 1458 1456 1454 1451 1448 1445 1444 1443 1440 1437 1435 1432 1428 1426 1423 1420 1417 1414 1412 1412 1414 1417 1421 1424 1428 1431 1434 1438 1440 1442 1444 1445 1446 1446 1445 1444 1442
1469 1474 1474 1463 1460 1460 1452 1451 1452 1449 1445 1442 1440 1436 1434 1434 1430 1427 1423 1420 1417 1414 1411 1408 1405 1403 1403 1405 1408 1412 1415 1419 1422 1426 1429 1432 1435 1437 1439 1441 1441 1441 1440 1439